This is the latest recevied weather packets stored in our database for station/object KC3AWA. If no packets are shown the sender has not sent any weather packets the latest 1 day(s).
| Time | Temp. | Humidity | Pressure | Rain* | Wind** | Luminosity | Snow |
|---|---|---|---|---|---|---|---|
| 1778012435 | 19.44° C | 58% | 1008.6 hPa | 0 mm | 1.34 m/s, 226° | 94 W/m² | - |
| 1778012132 | 19.44° C | 56% | 1008.5 hPa | 0 mm | 0.45 m/s, 200° | 103 W/m² | - |
| 1778011830 | 20° C | 55% | 1008.2 hPa | 0 mm | 3.13 m/s, 222° | 108 W/m² | - |
| 1778011528 | 20° C | 55% | 1008.5 hPa | 0 mm | 3.58 m/s, 219° | 116 W/m² | - |
| 1778011224 | 20° C | 55% | 1008.3 hPa | 0 mm | 3.13 m/s, 160° | 134 W/m² | - |
| 1778010920 | 19.44° C | 56% | 1008.3 hPa | 0 mm | 0.45 m/s, 243° | 97 W/m² | - |
| 1778010618 | 19.44° C | 56% | 1008.5 hPa | 0 mm | 2.24 m/s, 166° | 53 W/m² | - |
| 1778010315 | 20° C | 56% | 1008.4 hPa | 0 mm | 2.68 m/s, 229° | 28 W/m² | - |
| 1778010010 | 20° C | 56% | 1008.4 hPa | 0 mm | 1.34 m/s, 236° | 30 W/m² | - |
| 1778009708 | 20° C | 56% | 1008.5 hPa | 0 mm | 2.24 m/s, 244° | 97 W/m² | - |
| 1778009405 | 20.56° C | 55% | 1008.8 hPa | 0 mm | 2.24 m/s, 232° | 95 W/m² | - |
| 1778009103 | 20.56° C | 54% | 1008.8 hPa | 0 mm | 2.24 m/s, 213° | 65 W/m² | - |
| 1778008800 | 20.56° C | 53% | 1008.5 hPa | 0 mm | 1.79 m/s, 212° | 95 W/m² | - |
| 1778008499 | 21.11° C | 53% | 1008.8 hPa | 0 mm | 1.34 m/s, 192° | 153 W/m² | - |
| 1778008196 | 21.11° C | 52% | 1008.5 hPa | 0 mm | 0.89 m/s, 195° | 210 W/m² | - |
| 1778007890 | 20.56° C | 54% | 1008.6 hPa | 0 mm | 0.89 m/s, 139° | 404 W/m² | - |
| 1778007586 | 20.56° C | 54% | 1008.5 hPa | 0 mm | 3.58 m/s, 227° | 460 W/m² | - |
| 1778007284 | 20° C | 57% | 1008.6 hPa | 0 mm | 1.34 m/s, 213° | 366 W/m² | - |
| 1778006980 | 20° C | 56% | 1008.6 hPa | 0 mm | 1.34 m/s, 167° | 127 W/m² | - |
| 1778006677 | 20° C | 56% | 1008.6 hPa | 0 mm | 1.79 m/s, 114° | 75 W/m² | - |
| 1778006373 | 20.56° C | 54% | 1008.8 hPa | 0 mm | 1.34 m/s, 231° | 123 W/m² | - |
| 1778006070 | 20.56° C | 55% | 1008.8 hPa | 0 mm | 1.34 m/s, 177° | 137 W/m² | - |
| 1778005767 | 20.56° C | 55% | 1008.6 hPa | 0 mm | 0 m/s | 153 W/m² | - |
| 1778005464 | 20.56° C | 53% | 1008.6 hPa | 0 mm | 2.68 m/s, 176° | 112 W/m² | - |
| 1778005160 | 20.56° C | 53% | 1008.5 hPa | 0 mm | 2.68 m/s, 208° | 211 W/m² | - |
* Rain latest hour (hover to see other rain measurements)
** Current wind speed in m/s (hover to see current wind gust speed)